Regional Weather Roundup
Issued by NWS

Home | Current Version | Previous Version | Text Only | Print | Product List | Glossary Off
Versions: 1 2 3 4 5 6 7 8 9 10 11 12 13 14 15 16 17 18 19 20 21 22 23 24 25 26 27 28 29 30 31 32 33 34 35 36 37 38 39 40 41 42 43 44 45 46 47 48 49 50

000
ASUS45 KPSR 181210
RWRAZ

ARIZONA REGIONAL HOURLY WEATHER ROUNDUP
NATIONAL WEATHER SERVICE PHOENIX AZ
500 AM MST THU SEP 18 2014

NOTE: FAIR INDICATES FEW OR NO CLOUDS BELOW 12,000 FEET WITH NO
SIGNIFICANT WEATHER AND/OR OBSTRUCTIONS TO VISIBILITY.

AZZ001>003-036-181300-
NORTHWEST ARIZONA

CITY           SKY/WX    TMP DP  RH WIND       PRES   REMARKS
BULLHEAD CITY  MOCLDY    84  68  58 CALM      29.73S
KINGMAN        CLEAR     66  61  84 SE8       29.91S
6HR MIN TEMP:  65; 6HR MAX TEMP:  71;

$$

AZZ004>008-015-016-018-181300-
NORTH CENTRAL ARIZONA

CITY           SKY/WX    TMP DP  RH WIND       PRES   REMARKS
GRAND CANYON   CLEAR     44  42  93 CALM      30.12F
6HR MIN TEMP:  44; 6HR MAX TEMP:  51;

PRESCOTT       CLEAR     56  52  86 CALM      30.02S
6HR MIN TEMP:  56; 6HR MAX TEMP:  61;

FLAGSTAFF      CLEAR     48  45  89 CALM      30.13F
6HR MIN TEMP:  48; 6HR MAX TEMP:  53;

PAYSON         CLEAR     57  55  94 CALM      30.03S
PAGE           CLEAR     69  52  54 CALM      29.97S
6HR MIN TEMP:  68; 6HR MAX TEMP:  75;

$$

AZZ009>014-017-181300-
NORTHEAST ARIZONA

CITY           SKY/WX    TMP DP  RH WIND       PRES   REMARKS
WINSLOW        CLEAR     56  54  93 SW3       30.02S
6HR MIN TEMP:  55; 6HR MAX TEMP:  63;

SAINT JOHNS    CLEAR     54  53  97 CALM      30.04R
6HR MIN TEMP:  54; 6HR MAX TEMP:  63;

SHOW LOW       CLOUDY    52  50  93 CALM      30.10S
$$

AZZ023-181300-
GREATER PHOENIX AREA

CITY           SKY/WX    TMP DP  RH WIND       PRES   REMARKS
PHOENIX        CLEAR     77  67  71 CALM      29.74S
6HR MIN TEMP:  77; 6HR MAX TEMP:  83;

BUCKEYE          N/A     73  72  94 N7        29.75F
LUKE AFB       CLEAR     75  70  84 N7        29.75S
6HR MIN TEMP:  75; 6HR MAX TEMP:  81;

DEER VALLEY    CLEAR     76  64  66 CALM      29.76S
6HR MIN TEMP:  76; 6HR MAX TEMP:  81;

SCOTTSDALE     CLEAR     80  61  52 NE3       29.78R
6HR MIN TEMP:  78; 6HR MAX TEMP:  82;

MESA-GATEWAY   MOCLDY    77  64  65 SE5       29.78S
$$

AZZ027-028-181300-
SOUTHWEST MARICOPA COUNTY AND PINAL COUNTY

CITY           SKY/WX    TMP DP  RH WIND       PRES   REMARKS
CASA GRANDE    CLEAR     73  63  68 N6        29.77S
6HR MIN TEMP:  73; 6HR MAX TEMP:  81;

$$

AZZ503-504-507>509-181300-
SOUTHEAST ARIZONA

CITY           SKY/WX    TMP DP  RH WIND       PRES   REMARKS
TUCSON         CLOUDY    71  67  87 CALM      29.85R
6HR MIN TEMP:  70; 6HR MAX TEMP:  75; 6HR PCP:  0.03;

DAVIS-MONTHAN  PTCLDY    70  68  94 NW1       29.83S
6HR MIN TEMP:  69; 6HR MAX TEMP:  74; 6HR PCP:  0.02;

NOGALES        CLOUDY    66  65  96 CALM      29.90R
6HR MIN TEMP:  66; 6HR MAX TEMP:  67; 6HR PCP:  0.33;

SIERRA VISTA   LGT RAIN  64  64 100 W3        29.93R FOG
                                      6HR PCP:  0.29;

DOUGLAS        RAIN      65  64  97 SE10      29.90F FOG
6HR MIN TEMP:  64; 6HR MAX TEMP:  66; 6HR PCP:  1.48;

SAFFORD        LGT RAIN  66  64  93 S8        29.89S
6HR MIN TEMP:  65; 6HR MAX TEMP:  70; 6HR PCP:  0.07;

$$

AZZ020-021-025-026-031-181300-
SOUTHWEST ARIZONA

CITY           SKY/WX    TMP DP  RH WIND       PRES   REMARKS
YUMA           PTCLDY    85  74  69 SE7       29.69S
6HR MIN TEMP:  85; 6HR MAX TEMP:  92;

$$

CAZ031-033-041-043-047-048-061-181300-
SOUTHERN CALIFORNIA

CITY           SKY/WX    TMP DP  RH WIND       PRES   REMARKS
DOWNTOWN L.A.  CLEAR     69  59  70 E3        29.80R
6HR MIN TEMP:  68; 6HR MAX TEMP:  74;

L.A. AIRPORT   CLEAR     68  59  73 CALM      29.80S
6HR MIN TEMP:  67; 6HR MAX TEMP:  70;

SAN DIEGO      CLOUDY    73  68  84 CALM      29.83R
6HR MIN TEMP:  73; 6HR MAX TEMP:  75;

BURBANK        CLEAR     69  56  62 E3        29.81S
6HR MIN TEMP:  69; 6HR MAX TEMP:  79;

ONTARIO        CLEAR     69  59  70 W7        29.82R
6HR MIN TEMP:  69; 6HR MAX TEMP:  78;

RIVERSIDE      CLEAR     71  60  68 CALM      29.82R
6HR MIN TEMP:  70; 6HR MAX TEMP:  80;

PALM SPRINGS   CLEAR     86  61  42 W3        29.71S
6HR MIN TEMP:  85; 6HR MAX TEMP:  94;

EL CENTRO NAS  CLEAR     85  59  41 SW6       29.66R
6HR MIN TEMP:  85; 6HR MAX TEMP:  93;

IMPERIAL       CLEAR     86  63  45 SW3       29.65S
6HR MIN TEMP:  86; 6HR MAX TEMP:  93;

BLYTHE         CLEAR     83  68  60 CALM      29.70S
6HR MIN TEMP:  81; 6HR MAX TEMP:  89;

NEEDLES        PTCLDY    83  69  62 CALM      29.73S
6HR MIN TEMP:  83; 6HR MAX TEMP:  90;

$$

NVZ020-UTZ003-181300-
SOUTHERN NEVADA-UTAH

CITY           SKY/WX    TMP DP  RH WIND       PRES   REMARKS
LAS VEGAS      PTCLDY    82  59  45 S8        29.74S
6HR MIN TEMP:  82; 6HR MAX TEMP:  88;

SALT LAKE CITY PTCLDY    69  46  43 SE10      29.90S
6HR MIN TEMP:  69; 6HR MAX TEMP:  78;

$$

NMZ009-TXZ055-181300-
NEW MEXICO-WEST TEXAS

CITY           SKY/WX    TMP DP  RH WIND       PRES   REMARKS
ALBUQUERQUE    PTCLDY    59  53  80 N7        30.08S
6HR MIN TEMP:  59; 6HR MAX TEMP:  66;

EL PASO        LGT RAIN  66  63  90 N10       29.97S
6HR MIN TEMP:  66; 6HR MAX TEMP:  68; 6HR PCP:  0.16;

$$


........................KEY........................
SKY/WX - SKY CONDITION/WEATHER
TMP    - TEMPERATURE IN FAHRENHEIT
DP     - DEW POINT IN FAHRENHEIT
RH     - RELATIVE HUMIDITY IN PERCENT
WIND   - DIRECTION AND SPEED IN MILES PER HOUR (MPH)
VRB    - VARIABLE WIND DIRECTION
PRES   - MEAN SEA LEVEL PRESSURE IN INCHES OF MERCURY
         F - FALLING PRESSURE   R - RISING PRESSURE
         S - STEADY PRESSURE
VSB    - VISIBILITY IN MILES
HX     - HEAT INDEX IN FAHRENHEIT
WCI    - WIND CHILL INDEX IN FAHRENHEIT
TC     - TEMPERATURE IN CELSIUS WHICH IS ALSO KNOWN AS
         TEMPERATURE IN CENTIGRADE
AFB    - AIR FORCE BASE
         LUKE AFB IS LUKE AIR FORCE BASE
         DAVIS-MONTHAN IS DAVIS-MONTHAN AIR FORCE BASE
NAS    - NAVAL AIR STATION
         EL CENTRO NAS IS EL CENTRO NAVAL AIR STATION
N/A    - NOT AVAILABLE


USA.gov is the U.S. government's official web portal to all federal, state and local government web resources and services.